Weather History for KCMD - January, 2014

Change the Weather History Date:

Saturday, January 18, 2014

  Actual Average Record
Temperature  
Mean Temperature 31 °F -  
Max Temperature 45 °F - - ()
Min Temperature 17 °F - - ()
Degree Days  
Heating Degree Days 34    
Moisture  
Dew Point 15 °F    
Average Humidity 50    
Maximum Humidity 88    
Minimum Humidity 24    
Precipitation  
Precipitation 0.00 in - - ()
Sea Level Pressure  
Sea Level Pressure 30.08 in    
Wind  
Wind Speed 5 mph (SSW)    
Max Wind Speed 20 mph    
Max Gust Speed 28 mph    
Visibility 10 miles    
Events      
Averages and records for this station are not official NWS values.
T = Trace of Precipitation, MM = Missing Value Source: NWS Daily Summary

Daily Weather History Graph

Daily Weather History Graph

Search for Another Location

Airport or City:

Trip Planner

Search our weather history database for the weather conditions in past years. The results will help you decide how hot, cold, wet, or windy it might be!

Date:

Astronomy

Jan. 18, 2014 Rise Set
Actual Time 6:52 AM CST 5:03 PM CST
Civil Twilight 6:25 AM CST 5:30 PM CST
Nautical Twilight 5:54 AM CST 6:01 PM CST
Astronomical Twilight 5:24 AM CST 6:31 PM CST
Moon 7:36 PM CST (1/18) 7:59 AM CST (1/18)
Length of Visible Light 11h 05m
Length of Day
10h 11m
Waning Gibbous, 94% of the Moon is Illuminated
Jan 18
Waning Gibbous
Jan 23
Last Quarter
Jan 30
New
Feb 6
First Quarter
Feb 14
Full

Hourly Weather History & Observations

Time (CST) Temp. Windchill Dew Point Humidity Pressure Visibility Wind Dir Wind Speed Gust Speed Precip Events Conditions
12:15 AM 23.5 °F - 18.7 °F 82% 30.15 in 10.0 mi Calm Calm - N/A   Clear
12:35 AM 22.6 °F - 18.1 °F 83% 30.16 in 10.0 mi Calm Calm - N/A   Clear
12:55 AM 22.8 °F - 18.3 °F 83% 30.16 in 10.0 mi Calm Calm - N/A   Clear
1:15 AM 23.9 °F 19.5 °F 17.2 °F 76% 30.16 in 10.0 mi NW 3.5 mph - N/A   Clear
1:35 AM 24.1 °F - 16.5 °F 73% 30.16 in 10.0 mi Calm Calm - N/A   Clear
1:55 AM 24.1 °F - 16.0 °F 71% 30.17 in 10.0 mi Calm Calm - N/A   Clear
2:15 AM 23.7 °F - 15.3 °F 70% 30.18 in 10.0 mi Calm Calm - N/A   Clear
2:35 AM 21.6 °F - 15.8 °F 78% 30.18 in 10.0 mi Calm Calm - N/A   Clear
2:55 AM 21.0 °F - 15.6 °F 80% 30.17 in 10.0 mi Calm Calm - N/A   Clear
3:15 AM 21.0 °F - 15.3 °F 78% 30.16 in 10.0 mi Calm Calm - N/A   Clear
3:35 AM 19.9 °F - 15.1 °F 81% 30.16 in 10.0 mi Calm Calm - N/A   Clear
3:55 AM 19.4 °F - 15.4 °F 85% 30.16 in 10.0 mi Calm Calm - N/A   Clear
4:15 AM 19.4 °F - 15.6 °F 85% 30.16 in 10.0 mi Calm Calm - N/A   Clear
4:35 AM 18.9 °F - 15.8 °F 88% 30.18 in 10.0 mi Calm Calm - N/A   Clear
4:55 AM 18.7 °F - 15.4 °F 87% 30.17 in 10.0 mi Calm Calm - N/A   Clear
5:15 AM 19.2 °F - 15.8 °F 87% 30.17 in 10.0 mi Calm Calm - N/A   Clear
5:35 AM 18.3 °F - 14.9 °F 86% 30.17 in 10.0 mi Calm Calm - N/A   Clear
5:55 AM 17.6 °F - 14.7 °F 88% 30.18 in 10.0 mi Calm Calm - N/A   Clear
6:15 AM 18.1 °F 12.9 °F 15.1 °F 88% 30.17 in 10.0 mi SSW 3.5 mph - N/A   Clear
6:35 AM 18.5 °F 13.3 °F 14.9 °F 86% 30.18 in 10.0 mi South 3.5 mph - N/A   Clear
6:55 AM 18.7 °F - 14.5 °F 84% 30.18 in 10.0 mi Calm Calm - N/A   Clear
7:15 AM 18.9 °F - 14.4 °F 83% 30.18 in 10.0 mi Calm Calm - N/A   Clear
7:35 AM 20.5 °F 15.6 °F 14.5 °F 78% 30.18 in 10.0 mi South 3.5 mph - N/A   Clear
7:55 AM 22.8 °F 18.2 °F 14.5 °F 71% 30.20 in 10.0 mi SW 3.5 mph - N/A   Clear
8:15 AM 25.3 °F 21.1 °F 14.0 °F 62% 30.20 in 10.0 mi SW 3.5 mph - N/A   Clear
8:35 AM 27.7 °F 23.8 °F 14.5 °F 58% 30.20 in 10.0 mi SW 3.5 mph - N/A   Clear
8:55 AM 29.3 °F 24.3 °F 13.6 °F 52% 30.20 in 10.0 mi SW 4.6 mph - N/A   Clear
9:15 AM 30.6 °F 23.8 °F 13.3 °F 49% 30.21 in 10.0 mi SW 6.9 mph - N/A   Clear
9:35 AM 31.5 °F 24.2 °F 11.5 °F 44% 30.20 in 10.0 mi SW 8.1 mph - N/A   Clear
9:55 AM 32.5 °F 26.2 °F 10.2 °F 39% 30.20 in 10.0 mi WSW 6.9 mph - N/A   Clear
10:15 AM 33.8 °F 28.6 °F 7.5 °F 33% 30.20 in 10.0 mi WSW 5.8 mph - N/A   Clear
10:35 AM 35.2 °F 29.5 °F 7.7 °F 32% 30.19 in 10.0 mi SW 6.9 mph - N/A   Clear
10:55 AM 36.5 °F 30.3 °F 8.1 °F 31% 30.17 in 10.0 mi South 8.1 mph - N/A   Clear
11:15 AM 37.6 °F 33.1 °F 9.0 °F 31% 30.16 in 10.0 mi SSW 5.8 mph 9.2 mph N/A   Clear
11:35 AM 38.5 °F 31.6 °F 10.9 °F 32% 30.13 in 10.0 mi SSW 10.4 mph - N/A   Clear
11:55 AM 39.4 °F 33.2 °F 11.5 °F 32% 30.12 in 10.0 mi SSW 9.2 mph - N/A   Clear
12:15 PM 39.7 °F 33.7 °F 10.8 °F 30% 30.11 in 10.0 mi South 9.2 mph 17.3 mph N/A   Clear
12:35 PM 40.1 °F 33.6 °F 10.4 °F 30% 30.10 in 10.0 mi SW 10.4 mph 17.3 mph N/A   Clear
12:55 PM 41.4 °F 33.6 °F 10.9 °F 29% 30.08 in 10.0 mi South 15.0 mph 20.7 mph N/A   Clear
1:15 PM 42.1 °F 36.1 °F 10.6 °F 28% 30.06 in 10.0 mi South 10.4 mph 21.9 mph N/A   Clear
1:35 PM 43.0 °F 36.0 °F 11.1 °F 27% 30.04 in 10.0 mi SSW 13.8 mph 21.9 mph N/A   Clear
1:55 PM 43.9 °F 36.8 °F 10.2 °F 25% 30.03 in 10.0 mi South 15.0 mph 20.7 mph N/A   Clear
2:15 PM 44.2 °F 37.3 °F 10.4 °F 25% 30.02 in 10.0 mi SSW 15.0 mph 23.0 mph N/A   Clear
2:35 PM 45.5 °F 38.3 °F 10.8 °F 24% 30.01 in 10.0 mi South 17.3 mph 24.2 mph N/A   Clear
2:55 PM 45.7 °F 39.1 °F 11.8 °F 25% 30.01 in 10.0 mi South 15.0 mph 19.6 mph N/A   Clear
3:15 PM 45.7 °F 39.1 °F 12.6 °F 26% 30.00 in 10.0 mi South 15.0 mph 25.3 mph N/A   Unknown
3:35 PM 45.0 °F 37.9 °F 12.9 °F 27% 29.99 in 10.0 mi South 16.1 mph 19.6 mph N/A   Clear
3:55 PM 45.1 °F 38.1 °F 13.5 °F 28% 29.98 in 10.0 mi South 16.1 mph 23.0 mph N/A   Clear
4:15 PM 45.7 °F 38.3 °F 13.6 °F 28% 29.97 in 10.0 mi South 18.4 mph 25.3 mph N/A   Clear
4:35 PM 44.8 °F 36.9 °F 14.0 °F 29% 29.96 in 10.0 mi South 19.6 mph 24.2 mph N/A   Clear
4:55 PM 43.7 °F 36.9 °F 14.0 °F 30% 29.96 in 10.0 mi South 13.8 mph 21.9 mph N/A   Clear
5:15 PM 43.2 °F 35.6 °F 14.7 °F 32% 29.96 in 10.0 mi South 16.1 mph 23.0 mph N/A   Clear
5:35 PM 42.8 °F 35.4 °F 14.7 °F 32% 29.96 in 10.0 mi South 15.0 mph - N/A   Clear
5:55 PM 42.3 °F 34.8 °F 15.4 °F 34% 29.95 in 10.0 mi SSW 15.0 mph 23.0 mph N/A   Clear
6:15 PM 42.4 °F 33.8 °F 15.6 °F 34% 29.95 in 10.0 mi SSW 19.6 mph 27.6 mph N/A   Clear
6:35 PM 42.3 °F 34.4 °F 15.6 °F 34% 29.96 in 10.0 mi SSW 16.1 mph 23.0 mph N/A   Scattered Clouds
6:55 PM 42.3 °F 34.8 °F 15.6 °F 34% 29.97 in 10.0 mi SSW 15.0 mph 20.7 mph N/A   Scattered Clouds
7:15 PM 41.9 °F 34.0 °F 15.8 °F 35% 29.97 in 10.0 mi SSW 16.1 mph 21.9 mph N/A   Clear
7:35 PM 41.7 °F 34.4 °F 16.2 °F 36% 29.97 in 10.0 mi SSW 13.8 mph 19.6 mph N/A   Clear
7:55 PM 41.7 °F 34.1 °F 16.7 °F 36% 29.96 in 10.0 mi SSW 15.0 mph 19.6 mph N/A   Clear
8:15 PM 42.1 °F 34.5 °F 16.9 °F 36% 29.96 in 10.0 mi SSW 15.0 mph 20.7 mph N/A   Clear
8:35 PM 42.3 °F 34.8 °F 17.1 °F 36% 29.96 in 10.0 mi SSW 15.0 mph 20.7 mph N/A   Mostly Cloudy
8:55 PM 42.4 °F 35.0 °F 17.2 °F 36% 29.96 in 10.0 mi SSW 15.0 mph - N/A   Scattered Clouds
9:15 PM 42.3 °F 35.1 °F 17.6 °F 37% 29.95 in 10.0 mi SSW 13.8 mph 19.6 mph N/A   Scattered Clouds
9:35 PM 42.4 °F 35.3 °F 17.6 °F 37% 29.95 in 10.0 mi SSW 13.8 mph - N/A   Mostly Cloudy
9:55 PM 42.3 °F 36.3 °F 18.0 °F 38% 29.95 in 10.0 mi SSW 10.4 mph - N/A   Scattered Clouds
10:15 PM 41.9 °F 36.3 °F 18.3 °F 39% 29.95 in 10.0 mi SSW 9.2 mph 18.4 mph N/A   Scattered Clouds
10:35 PM 41.9 °F 35.9 °F 18.5 °F 39% 29.94 in 10.0 mi SSW 10.4 mph 16.1 mph N/A   Clear
10:55 PM 41.5 °F 35.9 °F 18.5 °F 40% 29.94 in 10.0 mi SSW 9.2 mph 16.1 mph N/A   Scattered Clouds
11:15 PM 41.5 °F 35.0 °F 19.0 °F 41% 29.93 in 10.0 mi SSW 11.5 mph - N/A   Scattered Clouds
11:35 PM 41.2 °F 35.5 °F 19.4 °F 42% 29.93 in 10.0 mi SW 9.2 mph 17.3 mph N/A   Mostly Cloudy
11:55 PM 41.5 °F 36.4 °F 19.8 °F 42% 29.93 in 10.0 mi SW 8.1 mph - N/A   Scattered Clouds